Location: Unspecified
(0.0000°N, 0.0000°E)
Time: 12:14:06
(UTC+00:00)

CANX-2 - Visible Passes

Search period start: 21 January 2020 00:00
Search period end: 31 January 2020 00:00
Orbit: 595 x 612 km, 97.6° (Epoch: 20 January)

Date Brightness Start Highest point End Pass type
(mag) Time Alt. Az. Time Alt. Az. Time Alt. Az.
21 Jan ? 04:02:57 10° ENE 04:05:36 16° ESE 04:08:15 10° SE visible
21 Jan ? 05:38:08 10° NNW 05:41:09 19° WNW 05:44:10 10° SW visible
22 Jan ? 04:14:26 10° NE 04:17:52 24° ESE 04:21:17 10° SSE visible
23 Jan ? 04:26:14 10° NE 04:30:08 36° ESE 04:34:01 10° SSE visible
24 Jan ? 04:38:15 10° NNE 04:42:24 56° E 04:46:32 10° S visible
25 Jan ? 04:50:26 10° NNE 04:54:40 88° ESE 04:58:54 10° S visible
26 Jan ? 05:02:47 10° N 05:06:56 59° WNW 05:11:05 10° SSW visible
27 Jan ? 05:15:17 10° N 05:19:12 38° WNW 05:23:07 10° SSW visible
28 Jan ? 03:54:18 10° ENE 03:55:55 12° ESE 03:57:33 10° SE visible
28 Jan ? 05:27:59 10° NNW 05:31:28 25° WNW 05:34:57 10° SW visible
29 Jan ? 04:05:17 10° ENE 04:08:11 18° ESE 04:11:05 10° SE visible
29 Jan ? 05:40:59 10° NW 05:43:44 17° WNW 05:46:28 10° WSW visible
30 Jan ? 04:16:53 10° NE 04:20:26 27° ESE 04:24:00 10° SSE visible
